Location: Shepherdstown, WV
(39.4326°N, 77.8042°W)
Time: 06:30:14
(UTC-04:00)

Vanguard 1 - Pass Details

Date: 01 August 2021
Orbit: 652 x 3831 km, 34.3° (Epoch: 24 September)

Event Time Altitude Azimuth Distance (km) Brightness Sun altitude
Rises 15:50:23 0° 273° (W) 3,819 13.6 50.5°
Reaches altitude 10° 15:52:40 10° 266° (W) 3,120 13.5 50.1°
Maximum altitude 16:00:09 47° 196° (SSW) 2,185 12.9 48.8°
Drops below altitude 10° 16:13:37 10° 129° (SE) 5,472 13.7 46.3°
Sets 16:19:08 0° 125° (SE) 6,971 14.1 45.3°
